Flag for Madagascar Weather past 2 weeks in Antananarivo, Madagascar

Now
64 °F

Passing clouds.


Feels Like: 64 °F
Forecast: 55 / 83 °F
Wind: 2 mph from North

Location: Antananarivo / Ivato

Current Time: May 6, 2015 at 9:27:59 AM

Latest Report: May 6, 2015 at 9:00 AM


Visibility: N/A

Pressure: 30.21 "Hg

Humidity: 78%

Dew point: 57 °F

Location of AntananarivoLocation

Historic Weather in Antananarivo — Graph

°F

Antananarivo temperature yesterday

Maximum temperature yesterday: 77 °F (at 1:30 PM)
Minimum temperature yesterday: 59 °F (at 5:00 AM)
Average temperature yesterday: 67 °F

Past Weeks' High & Low Weather Summary

 TemperatureHumidityPressure
High86 °F (Apr 28, 3:00 PM)100% (Apr 21, 8:00 AM)30.30 "Hg (Apr 21, 8:00 AM)
Low57 °F (Apr 26, 3:00 AM)45% (Apr 28, 4:00 PM)30.01 "Hg (Apr 28, 3:00 PM)
Average69 °F86%30.17 "Hg
* Reported Apr 21 8:00 AM — May 6 8:30 AM, Antananarivo, Weather by CustomWeather, © 2015

Note: Actual official high and low records may vary slightly from our data, if they occured in-between our weather recording intervals... More about our weather records

Advertising

Antananarivo weather history for previous 24 hours

 ConditionsComfort  
Time TempWeatherWind HumidityBarometerVisibility
8:30 AM
Wed, May 6
63 °FPassing clouds.5 mph83%30.21 "HgN/A
8:00 AM63 °FPassing clouds.6 mph83%30.21 "HgN/A
7:30 AM61 °FPassing clouds.5 mph94%30.18 "HgN/A
7:00 AM61 °FPassing clouds.No wind88%30.18 "HgN/A
6:00 AM59 °FPassing clouds.3 mph94%30.18 "HgN/A
5:30 AM59 °FPassing clouds.No wind94%30.18 "HgN/A
5:00 AM61 °FPassing clouds.1 mph88%30.18 "HgN/A
4:30 AM61 °FPassing clouds.3 mph88%30.18 "HgN/A
4:00 AM61 °FPassing clouds.3 mph94%30.18 "HgN/A
3:30 AM61 °FPassing clouds.No wind94%30.21 "HgN/A
3:00 AM63 °FPassing clouds.No wind94%30.21 "HgN/A
2:30 AM63 °FPassing clouds.No wind94%30.21 "HgN/A
2:00 AM63 °FPassing clouds.6 mph94%30.21 "HgN/A
1:30 AM63 °FPassing clouds.1 mph94%30.24 "HgN/A
1:00 AM63 °FPassing clouds.No wind94%30.24 "HgN/A
12:30 AM63 °FPassing clouds.No wind94%30.24 "HgN/A
12:00 AM64 °FPassing clouds.No wind88%30.24 "HgN/A
11:30 PM
Tue, May 5
63 °FPassing clouds.No wind94%30.24 "HgN/A
11:00 PM63 °FPassing clouds.No wind94%30.24 "HgN/A
10:30 PM64 °FPassing clouds.6 mph88%30.24 "HgN/A
10:00 PM64 °FPassing clouds.2 mph88%30.24 "HgN/A
9:30 PM63 °FPassing clouds.1 mph88%30.21 "HgN/A
9:00 PM64 °FPassing clouds.No wind83%30.21 "HgN/A
8:30 PM66 °FPassing clouds.3 mph78%30.21 "HgN/A
8:00 PM66 °FPassing clouds.8 mph78%30.21 "HgN/A
7:30 PM66 °FPassing clouds.No wind78%30.21 "HgN/A
7:00 PM66 °FPassing clouds.6 mph78%30.18 "HgN/A
6:30 PM70 °FPassing clouds.7 mph73%30.18 "HgN/A
6:00 PM70 °FPassing clouds.9 mph73%30.18 "HgN/A
5:00 PM73 °FPassing clouds.10 mph53%30.18 "HgN/A
4:30 PM75 °FScattered clouds.8 mph54%30.18 "HgN/A
4:00 PM73 °FPartly sunny.10 mph53%30.18 "HgN/A
3:30 PM77 °FPartly sunny.10 mph51%30.18 "HgN/A
3:00 PM77 °FPartly sunny.9 mph51%30.18 "HgN/A
2:30 PM77 °FPartly sunny.9 mph47%30.18 "HgN/A
2:00 PM75 °FPartly sunny.10 mph54%30.18 "HgN/A
1:30 PM77 °FPartly sunny.13 mph51%30.18 "HgN/A
1:00 PM73 °FBroken clouds.8 mph57%30.21 "HgN/A
12:30 PM75 °FScattered clouds.7 mph57%30.24 "HgN/A
12:00 PM73 °FScattered clouds.8 mph61%30.24 "HgN/A
11:00 AM72 °FPartly sunny.9 mph65%30.24 "HgN/A
10:30 AM70 °FPartly sunny.8 mph69%30.27 "HgN/A
10:00 AM70 °FBroken clouds.8 mph69%30.30 "HgN/A
9:30 AM68 °FBroken clouds.6 mph73%30.27 "HgN/A
9:00 AM68 °FBroken clouds.2 mph83%30.18 "HgN/A
Weather by CustomWeather, © 2015

See weather overviewHow to use our weather pages